Hourly Data Report for October 15, 2013

All times are specified in Local Standard Time (LST). Add 1 hour to adjust for Daylight Saving Time where and when it is observed.

GJOA HAVEN A
NUNAVUT

68°38'08.000" N
95°51'01.000" W
46.90 m
2302337
71597
YHK

Download Data

Hourly Data (October 2013)
Hourly Data Report for October 15, 2013
Temp Definition
°C
Dew Point Temp Definition
°C
Rel Hum Definition
%
Wind Dir Definition
10's deg

Wind Spd Definition
km/h
Visibility Definition
km
Stn Press Definition
kPa
Hmdx Definition


Wind Chill Definition


Weather Definition


TIME
00:00 Legend Double Dagger -8.4 -9.5 92 34 22 16.1 100.44   -16 LegendNANA
01:00 Legend Double Dagger -8.4 -9.3 93 35 22 16.1 100.42   -16 LegendNANA
02:00 Legend Double Dagger -8.5 -9.4 93 35 22 16.1 100.36   -16 LegendNANA
03:00 Legend Double Dagger -8.6 -9.5 94 34 22 16.1 100.33   -16 LegendNANA
04:00 Legend Double Dagger -8.7 -9.5 94 35 21 16.1 100.29   -16 LegendNANA
05:00 Legend Double Dagger -8.6 -9.5 93 36 21 16.1 100.19   -16 LegendNANA
06:00 Legend Double Dagger -8.2 -9.1 93 35 22 16.1 100.13   -16 LegendNANA
07:00 Legend Double Dagger -8.5 -9.5 93 35 18 16.1 100.08   -16 LegendNANA
08:00 Legend Double Dagger -7.8 -8.9 92 34 17 16.1 100.03   -14 LegendNANA
09:00 Legend Double Dagger -7.5 -8.4 93 35 18 16.1 100.00   -14 LegendNANA
10:00 Legend Double Dagger -6.7 -7.5 94 33 26 16.1 99.97   -15 LegendNANA
11:00 Legend Double Dagger -6.6 -7.7 92 33 21 16.1 99.93   -14 LegendNANA
12:00 Legend Double Dagger -6.8 -7.9 92 33 22 16.1 99.89   -14 LegendNANA
13:00 Legend Double Dagger -6.9 -7.9 93 35 22 16.1 99.85   -14 LegendNANA
14:00 Legend Double Dagger -7.2 -8.0 94 35 22 16.1 99.80   -15 LegendNANA
15:00 Legend Double Dagger -7.3 -8.1 94 35 24 16.1 99.77   -15 LegendNANA
16:00 Legend Double Dagger -7.7 -8.6 93 35 24 16.1 99.78   -16 LegendNANA
17:00 Legend Double Dagger -7.6 -8.3 95 36 22 16.1 99.77   -15 LegendNANA
18:00 Legend Double Dagger -7.7 -8.4 95 35 26 16.1 99.76   -16 LegendNANA
19:00 Legend Double Dagger -7.8 -8.5 95 34 30 16.1 99.71   -17 LegendNANA
20:00 Legend Double Dagger -7.8 -8.5 95 33 30 16.1 99.71   -17 LegendNANA
21:00 Legend Double Dagger -6.3 -6.7 97 35 35 2.4 99.69   -15 LegendNANA
22:00 Legend Double Dagger -6.3 -6.7 97 35 30 1.6 99.70   -15 LegendNANA
23:00 Legend Double Dagger -5.9 -6.3 97 35 37 0.8 99.69   -15 LegendNANA

Notes on Data Quality.

Legend

  • E = Estimated
  • M = Missing
  • NA = Not Available
  • ‡ = Partner data that is not subject to review by the National Climate Archives
Date modified: